This is the latest recevied weather packets stored in our database for station/object DC1MBB-9. If no packets are shown the sender has not sent any weather packets the latest 10 day(s).
| Time | Temp. | Humidity | Pressure | Rain* | Wind** | Luminosity | Snow |
|---|---|---|---|---|---|---|---|
| 1778014526 | 16.67° C | 90% | 952 hPa | - | - | - | - |
| 1778014165 | 16.67° C | 80% | 952 hPa | - | - | - | - |
| 1778013804 | 17.22° C | 74% | 952 hPa | - | - | - | - |
| 1778013443 | 17.22° C | 67% | 952 hPa | - | - | - | - |
| 1778013082 | 18.33° C | 57% | 951 hPa | - | - | - | - |
| 1778012722 | 18.33° C | 54% | 951 hPa | - | - | - | - |
| 1778012361 | 18.33° C | 55% | 951 hPa | - | - | - | - |
| 1778012000 | 18.33° C | 55% | 951 hPa | - | - | - | - |
| 1778011639 | 18.89° C | 54% | 951 hPa | - | - | - | - |
| 1778011279 | 18.33° C | 54% | 951 hPa | - | - | - | - |
| 1778010918 | 18.89° C | 53% | 951 hPa | - | - | - | - |
| 1778010557 | 18.89° C | 53% | 951 hPa | - | - | - | - |
| 1778010196 | 18.89° C | 53% | 951 hPa | - | - | - | - |
| 1778009836 | 18.89° C | 53% | 951 hPa | - | - | - | - |
| 1778009475 | 18.33° C | 54% | 950 hPa | - | - | - | - |
| 1778009114 | 18.33° C | 54% | 950 hPa | - | - | - | - |
| 1778008753 | 18.33° C | 53% | 950 hPa | - | - | - | - |
| 1778008392 | 18.33° C | 53% | 950 hPa | - | - | - | - |
| 1778008032 | 18.89° C | 53% | 950 hPa | - | - | - | - |
| 1778007671 | 18.89° C | 51% | 950 hPa | - | - | - | - |
| 1778007310 | 18.89° C | 51% | 950 hPa | - | - | - | - |
| 1778006949 | 18.89° C | 50% | 950 hPa | - | - | - | - |
| 1778006796 | 19.44° C | 50% | 949 hPa | - | - | - | - |
| 1778006588 | 19.44° C | 50% | 949 hPa | - | - | - | - |
| 1778006228 | 19.44° C | 48% | 949 hPa | - | - | - | - |
* Rain since midnight (hover to see other rain measurements)
** Current wind speed in m/s (hover to see current wind gust speed)